Tracking 19795 objects as of 18-Jul-2019
HD Live streaming from Space Station
objects crossing your sky now

NAVSTAR 15 (USA 42)

Track NAVSTAR 15 (USA 42) now!
NAVSTAR 15 (USA 42) is classified as:


NORAD ID: 20185
Int'l Code: 1989-064A
Perigee: 21,511.1 km
Apogee: 21,588.3 km
Inclination: 54.0 °
Period: 773.8 minutes
Semi major axis: 27920 km
RCS: 1.9952 m2 (large)
Launch date: August 18, 1989
Source: United States (US)
Launch site: AIR FORCE EASTERN TEST RANGE (AFETR)
aabbcc
Your satellite tracking list
Your tracking list is empty




NASA's NSSDC Master Catalog

Two Line Element Set (TLE):
1 20185U 89064A   19198.51091285  .00000013  00000-0  00000+0 0  9995
2 20185  54.0192 175.8847 0013814 287.5681 263.0786  1.86086036209172
Source of the keplerian elements: AFSPC